Location: Robledo de Chavela
(40.5014°N, 4.2377°W)
Time: 19:42:56
(UTC+00:00)

SL-16 R/B - Pass Details

Date: 18 April 2024
Orbit: 841 x 846 km, 71.0° (Epoch: 17 May)

Event Time Altitude Azimuth Distance (km) Brightness Sun altitude
Exits shadow 23:23:09 20° 36° (NE) 1,840 4.2 -36.8°
Drops below altitude 10° 23:24:53 10° 31° (NNE) 2,471 5.0 -36.9°
Sets 23:27:22 0° 28° (NNE) 3,411 5.9 -37.0°
